Voltar ao catálogo

HJS-6C

AtivoCiênciaVLEO
NORAD 63430·PAYLOAD·🇨🇳 China

Lançado Apr 1, 2025 de Jiuquan Satellite Launch Center

Loading…

Próximas Passagens (próximas 24 horas)

TLE

AtualizadoSource: Space-Track

Época: Sep 14, 2026, 14:47 UTC

1 63430U 25067C   26257.61607236  .00014660  00000-0  69914-3 0  9998
2 63430  54.9994 356.8963 0006610 165.8542 194.2664 15.19335926 81524

Acompanhe HJS-6C em tempo real com AllMySat

Download on the App Store